Regional Weather Roundup
Issued by NWS

Home | Current Version | Previous Version | Text Only | Print | Product List | Glossary On
Versions: 1 2 3 4 5 6 7 8 9 10 11 12 13 14 15 16 17 18 19 20 21 22 23 24 25 26 27 28 29 30 31 32 33 34 35 36 37 38 39 40 41 42 43 44 45 46 47 48 49 50
000
ASUS44 KFWD 191615
RWRTX
NORTH TEXAS HOURLY WEATHER ROUNDUP
NATIONAL WEATHER SERVICE FORT WORTH TX
1100 AM CDT SAT AUG 19 2017

NOTE: "FAIR" INDICATES FEW OR NO CLOUDS BELOW 12,000 FEET WITH NO
SIGNIFICANT WEATHER AND/OR OBSTRUCTIONS TO VISIBILITY.

TXZ118-119-191700-
DALLAS/FORT WORTH METROPLEX

CITY           SKY/WX    TMP DP  RH WIND       PRES   REMARKS
DFW AIRPORT    MOSUNNY   91  72  53 SW10      30.00R HX  98
DALLAS LOVE    MOSUNNY   90  70  51 W8        30.00F HX  95
FTW MEACHAM    SUNNY     90  73  57 W9        30.01R HX  98
DAL-EXECUTIVE  SUNNY     90  71  53 W9        30.01S HX  96
FTW-ALLIANCE   SUNNY     90  73  57 SW8       30.01R HX  98
FTW-NAS-JRB    MOSUNNY   91  70  49 SW8       30.01S HX  96
FTW-SPINKS     SUNNY     91  70  49 W10       30.04R HX  97
ARLINGTON      SUNNY     89  71  55 SW10      30.02R HX  95
GRAND PRAIRIE  SUNNY     90  66  45 SW12      30.03R HX  92
ADDISON        SUNNY     90  70  51 W7        30.02  HX  95
MESQUITE       SUNNY     90  88  94 SW9       30.02R HX 124
LANCASTER      SUNNY     89  70  53 W9        30.02S HX  95
$$

TXZ091>094-102>105-117-120-121-131>134-191700-
NORTH CENTRAL TEXAS

CITY           SKY/WX    TMP DP  RH WIND       PRES   REMARKS
SHRMAN/DENISON SUNNY     88  74  63 SW10      30.02S HX  97
GAINESVILLE    SUNNY     90  72  55 SW7       30.03R HX  96
BOWIE          SUNNY     89  72  57 SW9       30.02S HX  96
BRIDGEPORT     SUNNY     89  71  56 W8        30.03S HX  94
DECATUR        SUNNY     88  73  61 SW9       30.03S HX  95
DENTON         SUNNY     90  74  59 SW13      30.01R HX  99
MCKINNEY       SUNNY     90  73  57 SW9       30.01S HX  98
BONHAM         SUNNY     88  73  62 SW10      30.01S HX  96
GREENVILLE     SUNNY     90  72  55 SW6       30.02S HX  96
ROCKWALL       SUNNY     87  73  63 SW7       30.02S HX  93
TERRELL        SUNNY     88  70  55 SW9       30.02S HX  93
WAXAHACHIE     SUNNY     90  71  54 W8        30.03S HX  96
CLEBURNE       SUNNY     88  72  58 W9        30.04S HX  94
GRANBURY       SUNNY     90  70  52 SW6       30.03S HX  96
$$

TXZ083>090-098>101-113>116-127>130-139>142-154-155-191700-
WESTERN NORTH TEXAS

CITY           SKY/WX    TMP DP  RH WIND       PRES   REMARKS
WICHITA FALLS  SUNNY     88  72  58 VRB7      30.00R HX  94
WF-KICKAPOO    SUNNY     89  72  55 W6        30.03R HX  96
VERNON         SUNNY     87  69  54 SW6       30.02S HX  91
ABILENE        SUNNY     86  72  62 SW13      30.07S HX  92
ABILENE-DYESS  MOSUNNY   86  71  60 S9        30.05S HX  92
GRAHAM         SUNNY     91  71  50 SW9       30.01S HX  97
BRECKENRIDGE   SUNNY     92  67  43 SW10      30.03S HX  96
CISCO          SUNNY     88  72  58 SW13      30.07R HX  94
EASTLAND       SUNNY     89  71  55 SW12      30.05S HX  94
RANGER         MOSUNNY   86  71  60 SW6       30.05S HX  91
MINERAL WELLS  SUNNY     89  69  51 W13       30.01S HX  93
STEPHENVILLE   SUNNY     88  68  51 SW6       30.08R HX  91
COMANCHE       SUNNY     91  68  46 SW8       30.06S HX  95
BROWNWOOD      SUNNY     88  70  55 SW8       30.06S HX  92
COLEMAN        SUNNY     88  69  53 SW7G17    30.07S HX  92
$$

TXZ143>147-156>162-174-175-191700-
CENTRAL TEXAS

CITY           SKY/WX    TMP DP  RH WIND       PRES   REMARKS
WACO           SUNNY     90  70  51 SW8       30.02S HX  95
WACO-TSTC      SUNNY     90  70  51 S12       30.03S HX  95
WACO-MCGREGOR  SUNNY     90  69  50 W9        30.03S HX  94
HILLSBORO      SUNNY     87  72  59 SW8       30.03S HX  93
CORSICANA      SUNNY     91  70  49 W12       30.03S HX  96
MEXIA          SUNNY     88  69  53 SW10      30.03S HX  93
HEARNE         SUNNY     86  74  66 SW7       30.04S HX  94
CAMERON        SUNNY     89  73  59 SW8       30.03S HX  96
TEMPLE         SUNNY     91  71  51 SW10      30.04S HX  97
KILLEEN        MOSUNNY   90  70  51 SW8       30.04S HX  95
KILLEEN-SKYLRK SUNNY     89  71  55 W10       30.04S HX  95
FORT HOOD      CLOUDY    87  69  53 W8        30.01S HX  91
HAMILTON       SUNNY     91  67  45 SW8       30.06S HX  93
LAMPASAS       SUNNY     91  72  54 SW8       30.04S HX  98
$$

TXZ095>097-106>112-122>126-135>138-148>153-164>167-191700-
EAST TEXAS

CITY           SKY/WX    TMP DP  RH WIND       PRES   REMARKS
PARIS          SUNNY     89  75  63 SW10      30.02S HX  99
SULPHUR SPRNGS SUNNY     89  70  54 W6        30.04S HX  94
MOUNT PLEASANT SUNNY     88  71  56 SW8       30.03S HX  93
GILMER         SUNNY     87  72  61 S5        30.03S HX  93
MINEOLA        SUNNY     88  72  58 SW8       30.02S HX  94
TYLER          SUNNY     87  73  62 SW8       30.03S HX  94
LONGVIEW       SUNNY     88  75  65 W7        30.02R HX  97
MARSHALL         N/A     87  73  61 W3        30.04S HX  94
ATHENS         SUNNY     86  70  58 SW5       30.02S HX  90
PALESTINE      SUNNY     88  75  65 SW10      30.04S HX  97
JACKSONVILLE   SUNNY     86  75  68 W6        30.06S HX  95
HENDERSON      SUNNY     87  74  64 W8        30.04S HX  96
CENTER         SUNNY     91  77  65 W5        30.04S HX 104
NACOGDOCHES    SUNNY     87  76  69 W6        30.04S HX  97
LUFKIN         MOSUNNY   87  76  69 SW7       30.03S HX  97
$$

SUPPLEMENTAL OBSERVATIONS (NWS FORT WORTH AREA)

CITY           SKY/WX    TMP DP  RH WIND       PRES   REMARKS
DENISON DAM      N/A     88  72  58 SW8         N/A  HX  94
CADDO GRASSLND   N/A     90  77  66 SW5         N/A  HX 102
PAT MAYSE LAKE   N/A     86  77  74 S7          N/A  HX  97
GREENVILLE       N/A     90  72  55 SW8         N/A  HX  96
CEDAR HILL       N/A     90  70  51 W6          N/A  HX  95
LBJ GRASSLAND    N/A     90  73  58 SW7         N/A  HX  98
POSSUM KINGDOM   N/A     91  70  49 SW9         N/A  HX  97
GRANBURY         N/A     91  72  52 SW7         N/A  HX  98
COMANCHE         N/A     93  66  40 W9          N/A  HX  96
MCGREGOR         N/A     91  68  46 W7G20       N/A  HX  95
TEMPLE           N/A     90  68  48 SW10        N/A  HX  93
LAKE LIMESTONE   N/A     91  72  52 SW10        N/A  HX  98
$$

SUPPLEMENTAL OBSERVATIONS (NWS NORMAN AREA)

CITY           SKY/WX    TMP DP  RH WIND       PRES   REMARKS
GOODLETT         N/A     89  68  49 S8        30.03S HX  92
ODELL            N/A     87  74  63 S6        30.03S HX  95
CROWELL          N/A     91  71  52 S6        30.03F HX  97
KNOX CITY        N/A     91  65  42 SW8       30.04S HX  94
SEYMOUR          N/A     91  68  47 SW13      30.02F HX  95
$$

SUPPLEMENTAL OBSERVATIONS (NWS SAN ANGELO AREA)

CITY           SKY/WX    TMP DP  RH WIND       PRES   REMARKS
WEINERT          N/A     90  70  51 SW12      30.04F HX  95
HASKELL          N/A     89  67  48 SW12      30.04S HX  91
THROCKMORTON     N/A     91  72  53 SW10      30.04S HX  98
STAMFORD         N/A     91  72  54 SW9       30.05F HX  98
CLYDE            N/A     86  72  62 S9        30.09S HX  92
HAMBY            N/A     90  72  55 SW13        N/A  HX  96
IVIE RESERVOIR   N/A     90  72  55 W6          N/A  HX  96
COLORADO BEND    N/A     91  66  43 SW7         N/A  HX  94
$$

SUPPLEMENTAL OBSERVATIONS (NWS SHREVEPORT AREA)

CITY           SKY/WX    TMP DP  RH WIND       PRES   REMARKS
CLARKSVILLE      N/A     93  75  55 CALM        N/A  HX 104
TEXARKANA        N/A     91  75  59 W3          N/A  HX 102
LINDEN           N/A     90  72  55 W5          N/A  HX  96
GILMER           N/A     90  72  55 SW8         N/A  HX  96
HENDERSON        N/A     90  79  70 W8          N/A  HX 105
LUFKIN           N/A     90  77  66 MISG        N/A  HX 102
N SABINE NF      N/A     90  75  62 MISG        N/A  HX 100
S SABINE NF      N/A     90  75  62 NW5         N/A  HX 100
$$

SUPPLEMENTAL OBSERVATIONS ARE A COLLECTION OF AUTOMATED INSTRUMENTS
THAT ARE MAINTAINED BY A VARIETY OF FEDERAL AND STATE AGENCIES.
CERTAIN ELEMENTS...SUCH AS HUMIDITY VALUES AND SUSTAINED WIND
SPEEDS...MAY BE APPROXIMATED.





USA.gov is the U.S. government's official web portal to all federal, state and local government web resources and services.